Location: Castillon
(43.0896°N, 0.2156°E)
Time: 04:26:10
(UTC+00:00)

Cosmos 1980 Rocket - Pass Details

Date: 17 October 2021
Orbit: 828 x 851 km, 71.0° (Epoch: 07 December)

Event Time Altitude Azimuth Distance (km) Brightness Sun altitude
Rises 18:41:42 0° 213° (SSW) 3,375 5.8 -16.9°
Reaches altitude 10° 18:44:09 10° 216° (SW) 2,448 5.0 -17.4°
Maximum altitude 18:49:43 63° 298° (WNW) 942 2.7 -18.4°
Drops below altitude 10° 18:55:22 10° 19° (NNE) 2,478 4.5 -19.4°
Sets 18:57:52 0° 23° (NNE) 3,420 5.2 -19.9°
